Location: Plainartige
(45.6866°N, 1.7993°E)
Time: 05:07:32
(UTC+00:00)

Envisat - Pass Details

Date: 21 January 2022
Orbit: 764 x 765 km, 98.2° (Epoch: 22 May)

Event Time Altitude Azimuth Distance (km) Brightness Sun altitude
Rises 04:03:34 0° 22° (NNE) 3,240 6.6 -35.0°
Reaches altitude 10° 04:06:07 10° 32° (NNE) 2,309 5.9 -34.5°
Maximum altitude 04:10:40 32° 95° (E) 1,293 4.6 -33.7°
Drops below altitude 10° 04:15:10 10° 158° (SSE) 2,295 5.6 -33.0°
Sets 04:17:41 0° 169° (SSE) 3,216 6.3 -32.5°
